Location: Newark
(42.8270°N, 8.3618°W)
Time: 04:23:58
(UTC+00:00)

Hubble Space Telescope - Pass Details

Date: 01 October 2020
Orbit: 536 x 540 km, 28.5° (Epoch: 21 October)

Event Time Altitude Azimuth Distance (km) Brightness Sun altitude
Exits shadow 05:14:51 - 204° (SSW) 1,846 3.2 -14.8°
Reaches altitude 10° 05:15:41 10° 192° (SSW) 1,777 3.2 -14.6°
Maximum altitude 05:16:09 10° 186° (S) 1,767 3.3 -14.5°
Drops below altitude 10° 05:16:37 10° 179° (S) 1,776 3.3 -14.4°
Sets 05:21:03 0° 135° (SE) 2,665 4.9 -13.6°
